Change the Weather History Date:

Friday, June 14, 2013

  Actual Average Record
Temperature  
Mean Temperature 68 °F -  
Max Temperature 80 °F 79 °F 91 °F (2001)
Min Temperature 57 °F 61 °F 51 °F (2014)
Cooling Degree Days 4    
Growing Degree Days 18 (Base 50)    
Moisture  
Dew Point 56 °F    
Average Humidity 63    
Maximum Humidity 82    
Minimum Humidity 44    
Precipitation  
Precipitation 0.00 in - - ()
Sea Level Pressure  
Sea Level Pressure 30.03 in    
Wind  
Wind Speed 5 mph (North)    
Max Wind Speed 10 mph    
Max Gust Speed -    
Visibility 10 miles    
Events      
Averages and records for this station are not official NWS values.
T = Trace of Precipitation, MM = Missing Value Source: NWS Daily Summary

Daily Weather History Graph

Daily Weather History Graph

Search for Another Location

Airport or City:

Trip Planner

Search our weather history database for the weather conditions in past years. The results will help you decide how hot, cold, wet, or windy it might be!

Date:

Astronomy

Jun. 14, 2013 Rise Set
Actual Time 6:23 AM EDT 9:12 PM EDT
Civil Twilight 5:52 AM EDT 9:44 PM EDT
Nautical Twilight 5:12 AM EDT 10:23 PM EDT
Astronomical Twilight 4:27 AM EDT 11:08 PM EDT
Moon 11:54 AM EDT (6/14) 12:22 AM EDT (6/14)
Length of Visible Light 15h 51m
Length of Day
14h 48m
Waxing Crescent, 30% of the Moon is Illuminated
Jun 14
Waxing Crescent
Jun 16
First Quarter
Jun 23
Full
Jun 30
Last Quarter
Jul 8
New

Hourly Weather History & Observations

Time (EDT) Temp. Heat Index Dew Point Humidity Pressure Visibility Wind Dir Wind Speed Gust Speed Precip Events Conditions
12:15 AM 66.2 °F - 51.8 °F 60% 30.00 in 10.0 mi North 3.5 mph - N/A   Clear
12:35 AM 64.4 °F - 51.8 °F 64% 30.00 in 10.0 mi Calm Calm - N/A   Clear
12:55 AM 60.8 °F - 51.8 °F 72% 30.00 in 10.0 mi NE 5.8 mph - N/A   Clear
1:15 AM 64.4 °F - 51.8 °F 64% 30.00 in 10.0 mi NNE 4.6 mph - N/A   Clear
1:35 AM 62.6 °F - 51.8 °F 68% 29.99 in 10.0 mi NE 3.5 mph - N/A   Clear
1:55 AM 60.8 °F - 51.8 °F 72% 29.99 in 10.0 mi NE 4.6 mph - N/A   Clear
2:15 AM 60.8 °F - 51.8 °F 72% 29.98 in 10.0 mi NE 5.8 mph - N/A   Clear
2:35 AM 62.6 °F - 51.8 °F 68% 29.98 in 10.0 mi NNE 5.8 mph - N/A   Clear
2:55 AM 62.6 °F - 51.8 °F 68% 29.98 in 10.0 mi NNE 4.6 mph - N/A   Clear
3:15 AM 62.6 °F - 51.8 °F 68% 29.98 in 10.0 mi North 3.5 mph - N/A   Clear
3:35 AM 60.8 °F - 51.8 °F 72% 29.99 in 10.0 mi NNW 4.6 mph - N/A   Clear
3:55 AM 59.0 °F - 51.8 °F 77% 29.98 in 10.0 mi NNW 4.6 mph - N/A   Clear
4:15 AM 60.8 °F - 51.8 °F 72% 29.99 in 10.0 mi NNW 3.5 mph - N/A   Clear
4:35 AM 59.0 °F - 51.8 °F 77% 30.00 in 10.0 mi West 6.9 mph - N/A   Clear
4:55 AM 59.0 °F - 51.8 °F 77% 30.00 in 10.0 mi NW 6.9 mph - N/A   Clear
5:15 AM 59.0 °F - 51.8 °F 77% 30.01 in 10.0 mi WNW 5.8 mph - N/A   Clear
5:35 AM 57.2 °F - 51.8 °F 82% 30.01 in 10.0 mi WNW 4.6 mph - N/A   Clear
5:55 AM 59.0 °F - 51.8 °F 77% 30.01 in 10.0 mi NNW 4.6 mph - N/A   Clear
6:15 AM 60.8 °F - 51.8 °F 72% 30.02 in 10.0 mi NNW 6.9 mph - N/A   Clear
6:35 AM 60.8 °F - 51.8 °F 72% 30.01 in 10.0 mi North 6.9 mph - N/A   Clear
6:55 AM 59.0 °F - 51.8 °F 77% 30.02 in 10.0 mi NNW 6.9 mph - N/A   Clear
7:15 AM 60.8 °F - 53.6 °F 77% 30.02 in 10.0 mi NNE 6.9 mph - N/A   Clear
7:35 AM 60.8 °F - 53.6 °F 77% 30.03 in 10.0 mi North 6.9 mph - N/A   Clear
7:55 AM 62.6 °F - 53.6 °F 72% 30.04 in 10.0 mi NNW 5.8 mph - N/A   Clear
8:15 AM 62.6 °F - 53.6 °F 72% 30.05 in 10.0 mi NNW 4.6 mph - N/A   Clear
8:35 AM 64.4 °F - 53.6 °F 68% 30.06 in 10.0 mi North 9.2 mph - N/A   Clear
8:55 AM 64.4 °F - 55.4 °F 73% 30.06 in 10.0 mi North 6.9 mph - N/A   Clear
9:15 AM 64.4 °F - 55.4 °F 73% 30.06 in 10.0 mi NNE 8.1 mph - N/A   Clear
9:35 AM 66.2 °F - 55.4 °F 68% 30.06 in 10.0 mi North 8.1 mph - N/A   Clear
9:55 AM 66.2 °F - 55.4 °F 68% 30.07 in 10.0 mi North 6.9 mph - N/A   Clear
10:15 AM 66.2 °F - 55.4 °F 68% 30.07 in 10.0 mi North 5.8 mph - N/A   Clear
10:35 AM 68.0 °F - 55.4 °F 64% 30.08 in 10.0 mi NNW 3.5 mph - N/A   Clear
10:55 AM 69.8 °F - 55.4 °F 60% 30.08 in 10.0 mi NNW 6.9 mph - N/A   Clear
11:15 AM 71.6 °F - 57.2 °F 60% 30.09 in 10.0 mi NNE 6.9 mph - N/A   Clear
11:35 AM 71.6 °F - 57.2 °F 60% 30.09 in 10.0 mi NW 6.9 mph - N/A   Clear
11:55 AM 71.6 °F - 57.2 °F 60% 30.09 in 10.0 mi NW 8.1 mph - N/A   Clear
12:15 PM 73.4 °F - 57.2 °F 57% 30.08 in 10.0 mi NW 8.1 mph - N/A   Clear
12:35 PM 73.4 °F - 57.2 °F 57% 30.08 in 10.0 mi NNE 6.9 mph - N/A   Clear
12:55 PM 75.2 °F - 59.0 °F 57% 30.07 in 10.0 mi NW 5.8 mph - N/A   Clear
1:15 PM 75.2 °F - 57.2 °F 53% 30.07 in 10.0 mi NNE 4.6 mph - N/A   Clear
1:35 PM 75.2 °F - 57.2 °F 53% 30.07 in 10.0 mi North 6.9 mph - N/A   Clear
1:55 PM 77.0 °F - 57.2 °F 50% 30.06 in 10.0 mi North 8.1 mph - N/A   Clear
2:15 PM 77.0 °F - 57.2 °F 50% 30.06 in 10.0 mi NNE 6.9 mph - N/A   Clear
2:35 PM 78.8 °F - 60.8 °F 54% 30.05 in 10.0 mi NW 6.9 mph - N/A   Clear
2:55 PM 78.8 °F - 55.4 °F 44% 30.06 in 10.0 mi Calm Calm - N/A   Clear
3:15 PM 78.8 °F - 57.2 °F 47% 30.06 in 10.0 mi North 6.9 mph - N/A   Clear
3:35 PM 80.6 °F 81.1 °F 59.0 °F 48% 30.05 in 10.0 mi North 9.2 mph - N/A   Clear
3:55 PM 78.8 °F - 57.2 °F 47% 30.04 in 10.0 mi NNW 4.6 mph - N/A   Clear
4:15 PM 80.6 °F 80.8 °F 57.2 °F 45% 30.04 in 10.0 mi North 10.4 mph - N/A   Clear
4:35 PM 80.6 °F 80.8 °F 57.2 °F 45% 30.04 in 10.0 mi NNE 8.1 mph - N/A   Clear
4:55 PM 80.6 °F 81.1 °F 59.0 °F 48% 30.05 in 10.0 mi North 5.8 mph - N/A   Clear
5:15 PM 78.8 °F - 60.8 °F 54% 30.05 in 10.0 mi North 6.9 mph - N/A   Mostly Cloudy
5:35 PM 78.8 °F - 59.0 °F 51% 30.05 in 10.0 mi North 5.8 mph - N/A   Mostly Cloudy
5:55 PM 78.8 °F - 59.0 °F 51% 30.05 in 10.0 mi Calm Calm - N/A   Partly Cloudy
6:15 PM 80.6 °F 80.8 °F 57.2 °F 45% 30.05 in 10.0 mi North 4.6 mph - N/A   Mostly Cloudy
6:35 PM 80.6 °F 81.1 °F 59.0 °F 48% 30.04 in 10.0 mi NNE 5.8 mph - N/A   Partly Cloudy
6:55 PM 78.8 °F - 59.0 °F 51% 30.02 in 10.0 mi NNE 8.1 mph - N/A   Clear
7:15 PM 77.0 °F - 57.2 °F 50% 30.03 in 10.0 mi NNE 4.6 mph - N/A   Clear
7:35 PM 77.0 °F - 60.8 °F 57% 30.02 in 10.0 mi NE 5.8 mph - N/A   Clear
7:55 PM 77.0 °F - 57.2 °F 50% 30.02 in 10.0 mi NE 5.8 mph - N/A   Clear
8:15 PM 78.8 °F - 59.0 °F 51% 30.02 in 10.0 mi East 3.5 mph - N/A   Clear
8:35 PM 75.2 °F - 60.8 °F 61% 30.02 in 10.0 mi ENE 3.5 mph - N/A   Clear
8:55 PM 73.4 °F - 60.8 °F 65% 30.02 in 10.0 mi ENE 3.5 mph - N/A   Clear
9:15 PM 71.6 °F - 60.8 °F 69% 30.01 in 10.0 mi ENE 4.6 mph - N/A   Clear
9:35 PM 69.8 °F - 57.2 °F 64% 30.01 in 10.0 mi ENE 6.9 mph - N/A   Clear
9:55 PM 69.8 °F - 57.2 °F 64% 30.00 in 10.0 mi East 8.1 mph - N/A   Clear
10:15 PM 69.8 °F - 57.2 °F 64% 30.02 in 10.0 mi Calm Calm - N/A   Clear
10:35 PM 69.8 °F - 57.2 °F 64% 30.04 in 10.0 mi Calm Calm - N/A   Clear
10:55 PM 68.0 °F - 57.2 °F 68% 30.05 in 10.0 mi Calm Calm - N/A   Clear
11:15 PM 66.2 °F - 57.2 °F 73% 30.05 in 10.0 mi West 3.5 mph - N/A   Clear
11:35 PM 66.2 °F - 59.0 °F 78% 30.04 in 10.0 mi Calm Calm - N/A   Clear
11:55 PM 66.2 °F - 57.2 °F 73% 30.04 in 10.0 mi Calm Calm - N/A   Clear